Regional Weather Roundup
Issued by NWS

Home | Current Version | Previous Version | Text Only | Print | Product List | Glossary On
Versions: 1 2 3 4 5 6 7 8 9 10 11 12 13 14 15 16 17 18 19 20 21 22 23 24 25 26 27 28 29 30 31 32 33 34 35 36 37 38 39 40 41 42 43 44 45 46 47 48 49 50
000
ASUS42 KFFC 252210
RWRGA
WEATHER ROUNDUP FOR GEORGIA
NATIONAL WEATHER SERVICE PEACHTREE CITY GA
600 PM EDT FRI MAY 25 2018

NOTE: "FAIR" INDICATES FEW OR NO CLOUDS BELOW 12,000 FEET WITH NO
SIGNIFICANT WEATHER AND/OR OBSTRUCTIONS TO VISIBILITY.

* = USE WITH CAUTION. THE STATIONS MARKED WITH AN ASTERISK MAY NOT
REPORT WEATHER SUCH AS PRECIPITATION, FOG, OR THUNDER AND ARE NOT
QUALITY CONTROLLED BY NWS.

THE REMARK "TC" DENOTES TEMPERATURE READING IN DEGREES CELSIUS.

GAZ001>058-252300-
NORTH GEORGIA

CITY           SKY/WX    TMP DP  RH WIND       PRES   REMARKS
ATLANTA        PTSUNNY   83  68  60 S8        29.95F
ATHENS         PTSUNNY   76  72  87 E6        29.99R
CHAMBLEE       FAIR      81  67  62 VRB6      29.96S
PEACHTREE CITY FAIR      80  72  76 VRB3      29.95F
ROME           FAIR      85  67  54 S8        29.92S
WEST ATLANTA   FAIR      82  69  64 VRB3      29.94F
GAINESVILLE    FAIR      78  69  73 E8        30.01S
CARTERSVILLE   FAIR      84  68  58 S5        29.93F


CITY           SKY/WX    TMP DP  RH WIND       PRES   REMARKS
DALTON*        FAIR      86  66  51 CALM      29.94S
LAWRENCEVILLE* RAIN      73  70  88 SE6       29.99R
MARIETTA       PTSUNNY   82  66  59 S7        29.95F
KENNESAW*        N/A     82  68  62 S6        29.95F
CANTON*        FAIR      86  63  45 E5        29.98S
BLAIRSVILLE*   PTSUNNY   76  64  65 SE8       30.01S
$$

GAZ059>098-102>109-252300-
CENTRAL GEORGIA

CITY           SKY/WX    TMP DP  RH WIND       PRES   REMARKS
AUGUSTA-BUSH   RAIN      76  75  97 N5        29.98S
AUGUSTA-DANIEL PTSUNNY   77  74  90 NE3       30.00S
COLUMBUS       LGT RAIN  78  73  84 S6        29.94S
MACON          PTSUNNY   79  73  82 NW5       29.95S THUNDER
ROBINS AFB     TSTM      79  75  89 W6        29.94R FOG


CITY           SKY/WX    TMP DP  RH WIND       PRES   REMARKS
LAGRANGE*      RAIN      76  75  98 CALM      29.95S
SYLVANIA*      FAIR      85  71  63 S9        29.98S HX  90
MILLEDGEVILLE* LGT RAIN  77  73  88 CALM      29.96S
$$

GAZ099>101-110>166-252300-
SOUTH GEORGIA

CITY           SKY/WX    TMP DP  RH WIND       PRES   REMARKS
SAVANNAH       PTSUNNY   83  70  64 SE15      29.99S
VALDOSTA       TSTM      77  75  93 CALM      29.96R
ALMA           CLOUDY    81  71  71 SE5       29.96F
ST SIMONS      FAIR      81  73  76 SE14      29.99F
FT STEWART     FAIR      82  69  65 SE12G17   29.96S
ALBANY         PTSUNNY   89  69  51 SW12      29.93F HX  93
HUNTER AFB     FAIR      82  71  68 SE13      29.97S
MOODY AFB      FAIR      78  74  85 CALM      29.94F
BRUNSWICK      PTSUNNY   81  68  65 SE10      30.00S


CITY           SKY/WX    TMP DP  RH WIND       PRES   REMARKS
BAINBRIDGE*    FAIR      91  73  55 S7        29.91F HX 100
MOULTRIE*      CLOUDY    81  72  74 S9G17     29.96R
VIDALIA*       CLOUDY    77  70  78 S10G17    29.97S
WAYCROSS*      FAIR      79  75  90 E3        29.97S
DOUGLAS*       FAIR      81  72  74 SE3       29.98S
$$




USA.gov is the U.S. government's official web portal to all federal, state and local government web resources and services.